Overview Statistics Trail Chart Weather Telemetry Raw packets
 

This is the latest recevied weather packets stored in our database for station/object N5ZP. If no packets are shown the sender has not sent any weather packets the latest 10 day(s).

<< 4 5 6 7 8 9 10 >>
Time Temp. Humidity Pressure Rain* Wind** Luminosity Snow
1788572857 32.22° C 50% 1009 hPa 0 mm - 0 W/m² -
1788572553 32.22° C 49% 1009 hPa 0 mm - 0 W/m² -
1788572249 32.22° C 49% 1008.8 hPa 0 mm - 0 W/m² -
1788571945 32.22° C 50% 1008.9 hPa 0 mm - 0 W/m² -
1788571640 32.22° C 49% 1009 hPa 0 mm - 0 W/m² -
1788571335 32.78° C 48% 1008.7 hPa 0 mm - 0 W/m² -
1788571032 32.78° C 48% 1008.5 hPa 0 mm - 0 W/m² -
1788570728 32.78° C 47% 1008.6 hPa 0 mm - 0 W/m² -
1788570427 33.33° C 47% 1008.6 hPa 0 mm - 0 W/m² -
1788570123 33.33° C 46% 1008.5 hPa 0 mm - 0 W/m² -
1788569820 33.89° C 46% 1008.8 hPa 0 mm - 1 W/m² -
1788569515 33.89° C 45% 1008.4 hPa 0 mm - 2 W/m² -
1788569215 33.89° C 45% 1008.6 hPa 0 mm - 4 W/m² -
1788568910 34.44° C 44% 1008.3 hPa 0 mm - 6 W/m² -
1788568605 34.44° C 44% 1008.5 hPa 0 mm - 11 W/m² -
1788568301 35° C 43% 1008.4 hPa 0 mm - 15 W/m² -
1788567997 35° C 43% 1008.2 hPa 0 mm - 19 W/m² -
1788567691 35° C 42% 1008.2 hPa 0 mm - 23 W/m² -
1788567386 35.56° C 42% 1008.2 hPa 0 mm - 28 W/m² -
1788567086 35.56° C 41% 1008.1 hPa 0 mm - 33 W/m² -
1788566781 35.56° C 40% 1008.2 hPa 0 mm - 39 W/m² -
1788566477 35.56° C 40% 1008 hPa 0 mm - 44 W/m² -
1788566177 36.11° C 40% 1007.9 hPa 0 mm - 49 W/m² -
1788565876 36.11° C 40% 1008 hPa 0 mm - 52 W/m² -
1788565571 36.11° C 40% 1007.8 hPa 0 mm - 56 W/m² -

* Rain latest hour (hover to see other rain measurements)
** Current wind speed in m/s (hover to see current wind gust speed)